Lapse_Rate
9.4 8.5 8.3 8.1 7.8 7.9 9.0 9.1 8.7 9.0 8.3 7.9 8.2 7.4 6.5 5.7 6.4 6.2 6.9 6.6 6.9 7.4 7.7 7.7 7.6 7.4 7.7 7.8 7.7 8.8 8.3 8.9 9.4 9.5 8.6 8.1 7.4 7.1 6.5 6.5 6.6 6.5 6.5 6.8 6.9 6.8 6.7
9.0 8.9 8.5 8.1 8.0 8.0 8.0 8.0 8.0 8.1 7.9 7.7 8.0 7.6 6.6 6.7 6.2 6.2 6.4 6.1 6.8 6.9 7.5 7.4 7.6 7.4 8.0 6.6 9.7 9.4 9.7 9.4 9.4 9.1 8.6 8.4 7.7 7.7 6.9 6.6 6.5 6.6 6.6 6.6 6.7 6.7 6.8
9.2 8.6 8.7 8.3 8.1 8.2 8.1 7.7 7.8 8.4 8.3 7.8 8.0 7.5 7.2 6.4 5.9 6.3 5.6 6.2 6.7 6.6 7.2 7.2 7.3 8.0 8.2 7.6 9.8 9.7 9.7 9.4 9.4 9.1 8.2 8.7 8.5 7.6 7.3 6.5 7.2 6.8 6.5 6.5 6.5 6.5 6.5
9.2 8.9 8.5 8.6 8.4 8.0 8.7 8.2 8.3 8.0 8.3 7.8 7.9 7.7 7.5 5.7 6.1 6.2 6.6 6.4 6.9 6.6 7.2 7.4 7.5 8.9 7.3 9.1 9.5 9.1 9.7 9.2 9.5 9.5 9.0 9.0 8.9 7.9 7.1 7.2 6.8 6.5 6.5 6.5 6.5 6.5 6.4
9.1 9.1 8.4 8.6 8.2 8.0 8.2 8.2 8.1 8.0 7.8 7.8 7.5 7.5 7.0 6.3 5.3 4.6 7.1 6.6 6.5 6.7 7.3 7.4 7.9 8.3 7.1 8.2 8.7 9.4 9.4 8.6 9.0 9.1 9.1 9.2 8.5 7.2 7.1 6.5 6.5 6.5 6.5 6.5 6.5 6.5 6.5
9.1 8.9 8.7 8.6 8.0 7.6 8.0 7.9 7.8 8.1 7.8 7.8 7.3 7.6 7.0 5.9 5.9 6.7 7.2 7.2 7.5 7.9 9.1 9.7 9.3 7.5 8.0 7.6 8.7 9.2 9.5 9.1 8.3 8.2 7.8 7.6 7.0 6.5 6.5 6.5 6.5 6.5 6.5 6.5 6.5 6.5 6.5
8.7 8.9 8.3 8.1 8.4 7.2 7.5 7.9 8.3 8.2 7.8 7.4 7.0 6.0 6.5 5.6 5.6 6.9 5.8 7.4 7.6 7.7 8.4 7.4 7.5 7.4 7.9 8.7 8.7 8.5 9.1 8.5 8.3 7.5 6.5 6.8 6.5 6.5 6.5 6.5 6.5 6.5 6.5 6.5 6.5 6.5 6.5
8.0 7.6 8.5 7.9 8.0 7.1 7.4 8.0 8.4 7.7 7.4 7.6 6.8 6.4 6.6 5.5 5.3 6.2 6.3 7.6 7.5 7.1 6.8 8.0 8.0 8.1 8.5 8.6 7.3 8.1 8.8 7.3 6.9 6.5 6.5 6.5 6.5 6.5 6.5 6.5 6.5 6.5 6.5 6.5 6.5 6.5 6.5
8.7 7.7 7.6 7.9 8.0 7.5 6.9 7.8 7.8 7.6 7.2 7.0 7.1 6.5 6.0 5.6 5.3 5.2 6.8 7.9 7.2 6.4 6.6 7.2 8.0 7.8 7.9 8.3 7.2 7.3 8.2 7.5 6.5 6.5 6.5 6.5 6.5 6.5 6.5 6.5 6.5 6.5 6.5 6.5 6.5 6.5 6.5
7.9 7.3 6.7 7.0 7.5 7.4 6.7 7.2 7.2 7.2 7.0 6.2 6.5 6.8 6.5 6.4 7.2 8.2 8.3 6.9 6.2 6.6 6.5 6.5 6.8 7.5 8.0 8.0 6.7 8.4 8.5 7.5 6.6 6.5 6.5 6.5 6.5 6.5 6.5 6.5 6.5 6.5 6.5 6.5 6.5 6.5 6.5
7.0 7.1 7.0 5.4 6.1 6.7 6.2 6.6 7.2 7.3 6.4 5.7 6.4 6.8 6.8 6.0 7.4 7.7 6.8 6.5 6.8 7.1 6.5 6.5 6.7 8.3 8.1 7.0 7.2 7.3 8.6 7.6 6.5 6.5 6.5 6.5 6.5 6.5 6.5 6.5 6.5 6.5 6.5 6.5 6.5 6.5 6.5
6.9 6.8 6.8 6.5 5.4 5.9 5.4 6.3 7.4 6.7 6.3 5.5 6.5 6.9 6.1 6.6 7.1 6.5 7.1 7.4 7.2 6.5 6.5 6.5 6.8 6.5 6.5 6.9 6.9 7.4 7.3 7.7 7.4 6.5 6.5 6.5 6.6 6.5 6.5 6.5 6.5 6.5 6.5 6.5 6.5 6.5 6.5
6.4 6.4 6.0 5.9 5.2 6.0 5.6 6.9 7.7 7.1 6.2 5.9 5.6 5.9 6.9 7.2 7.3 6.9 7.3 7.3 6.5 6.5 6.5 6.5 6.5 6.5 6.5 6.5 6.5 6.5 6.5 6.5 6.5 6.5 6.5 6.5 6.5 6.5 6.6 6.5 6.5 6.5 6.5 6.5 6.5 6.5 6.5
4.9 4.9 4.8 5.1 6.9 6.5 6.9 7.8 7.4 6.4 5.8 5.7 5.6 5.7 5.4 6.6 7.6 7.4 7.6 6.6 6.5 6.5 6.5 6.5 6.5 6.5 6.5 6.5 6.5 6.5 6.5 6.5 6.5 6.5 6.5 6.5 6.5 6.5 6.5 6.5 6.5 6.5 6.5 6.5 6.5 6.5 6.5
5.9 5.1 5.6 5.4 7.6 7.1 7.8 6.8 6.3 6.5 5.4 6.4 5.9 6.0 6.0 6.5 6.8 7.3 7.3 6.5 6.5 6.5 6.5 6.5 6.5 6.5 6.5 6.5 6.5 6.5 6.5 6.5 6.5 6.5 6.5 6.5 6.5 6.5 6.5 6.5 6.5 6.5 6.5 6.5 6.5 6.5 6.5
5.4 5.3 6.6 6.8 7.2 7.3 7.3 7.0 6.9 6.7 6.7 7.0 6.3 6.3 6.5 6.2 6.3 6.7 6.6 6.5 6.5 6.5 6.5 6.5 6.5 6.5 6.5 6.5 6.5 6.5 6.5 6.5 6.5 6.5 6.6 6.5 6.5 6.5 6.5 6.6 6.5 6.5 6.5 6.5 6.5 6.5 6.5
5.8 5.8 5.4 5.3 6.1 6.8 6.8 7.1 6.7 7.2 7.1 6.7 6.8 7.2 6.7 6.5 6.3 6.6 6.5 6.5 6.5 7.0 6.9 6.5 6.5 6.5 6.5 6.5 6.5 6.5 6.5 6.5 6.5 6.5 6.6 6.5 6.5 6.5 6.5 6.5 6.5 6.5 6.5 6.5 6.5 6.5 6.5
6.6 6.6 6.3 5.7 5.7 6.3 7.0 7.2 7.7 7.9 7.0 6.7 6.7 6.5 6.8 6.8 6.6 6.1 6.5 6.5 5.8 6.6 7.1 6.5 6.5 6.5 6.5 6.5 6.5 6.5 6.5 6.5 6.8 6.5 6.5 6.5 6.5 6.5 6.5 6.5 6.5 6.5 6.5 6.5 6.5 6.5 6.5
6.9 6.5 6.8 6.6 5.4 5.3 6.0 6.8 7.3 7.0 7.3 6.1 7.3 7.2 7.3 7.4 6.5 6.5 6.5 6.5 6.6 6.5 6.5 6.5 6.5 6.5 6.5 6.5 6.5 6.5 6.5 6.6 6.9 6.5 6.5 6.5 6.5 6.5 6.5 6.5 6.5 6.5 6.5 6.5 6.5 6.5 6.5
5.5 6.3 6.5 6.4 6.4 5.7 5.9 5.9 6.4 6.7 6.3 6.2 6.9 6.5 7.0 7.0 7.0 6.5 6.5 6.5 6.5 6.9 6.6 6.7 6.5 6.6 6.5 6.5 6.5 6.5 6.5 6.5 6.8 6.7 7.0 6.6 6.5 6.5 6.5 6.5 6.5 6.5 6.5 6.5 6.5 6.5 6.5
5.3 5.6 6.5 5.9 6.3 6.0 5.7 5.5 5.4 5.2 4.7 5.9 7.1 6.6 6.9 6.5 6.5 6.5 6.5 6.5 6.5 6.5 6.7 6.9 6.5 6.5 6.5 6.5 6.5 6.5 6.5 6.5 6.5 6.8 6.4 6.5 6.5 6.5 6.5 6.5 6.5 6.5 6.5 6.5 6.5 6.5 6.5
4.9 5.3 5.4 5.2 5.6 5.8 5.1 4.9 5.3 5.6 5.8 6.8 6.5 6.3 6.7 6.3 6.8 6.5 6.5 6.5 6.5 6.5 6.5 6.5 6.5 6.5 6.5 6.5 6.5 6.5 6.5 6.5 6.5 6.5 6.5 6.5 6.5 6.5 6.5 6.5 6.5 6.5 6.5 6.5 6.5 6.5 6.5
4.8 5.1 5.3 5.8 6.1 6.1 5.3 5.2 5.1 5.5 5.8 6.9 6.5 7.1 6.3 6.3 6.4 6.5 6.5 6.5 6.5 6.5 6.7 6.9 6.6 6.5 6.5 6.5 6.7 6.6 6.6 6.5 6.5 6.5 6.5 6.5 6.5 6.5 6.5 6.5 6.5 6.5 6.5 6.5 6.5 6.5 6.5
4.8 5.0 5.4 5.9 6.2 5.8 5.4 5.3 5.9 5.3 5.9 6.0 5.0 5.0 6.1 6.5 6.5 6.5 6.5 6.6 6.5 6.5 6.5 6.8 6.8 6.5 6.9 7.2 7.1 6.5 6.4 6.4 6.2 6.4 6.1 6.5 6.5 6.5 6.5 6.5 6.5 6.5 6.5 6.5 6.5 6.5 6.5
5.0 4.8 5.4 5.8 5.7 5.2 5.0 5.3 6.0 5.9 5.2 4.5 4.4 4.6 5.9 6.5 6.0 6.5 6.6 6.5 6.7 6.7 6.6 6.7 7.0 6.9 7.0 6.6 6.5 6.5 6.5 6.5 6.5 6.5 6.5 6.5 6.5 6.5 6.5 6.5 6.5 6.5 6.5 6.5 6.5 6.5 6.5
5.1 4.9 5.0 5.4 5.3 5.3 5.2 5.2 5.6 5.9 6.4 6.4 2.8 3.0 4.8 6.1 6.4 6.2 6.4 6.7 6.5 6.5 6.5 6.7 7.1 7.1 6.8 6.4 6.5 6.5 6.5 6.5 6.5 6.5 6.5 6.5 6.5 6.5 6.5 6.5 6.5 6.5 6.5 6.8 6.4 6.5 6.4
5.2 5.2 5.1 5.0 5.6 5.6 6.0 5.6 5.7 6.2 6.2 6.1 4.7 3.4 4.3 5.9 5.2 5.0 6.2 6.4 6.2 6.1 6.5 6.4 6.7 6.6 6.9 6.5 6.5 6.5 6.5 6.5 6.5 6.5 6.5 6.5 6.5 6.5 6.5 6.5 6.5 6.5 6.4 6.8 6.5 6.5 6.4
5.4 5.0 4.9 5.1 5.3 5.9 6.0 5.8 5.7 5.9 5.9 6.0 4.7 4.6 4.7 5.4 4.9 5.2 6.0 6.4 5.9 5.6 6.5 6.1 6.4 6.3 6.2 6.5 6.5 6.5 6.5 6.5 6.5 6.5 6.5 6.5 6.5 6.5 6.5 6.5 6.5 6.2 6.5 6.5 6.2 6.4 6.4
5.8 5.4 5.0 4.9 4.8 5.3 5.7 5.8 6.2 5.8 5.8 6.2 6.4 5.6 5.2 5.2 4.3 4.3 4.8 4.7 4.6 4.7 4.8 6.2 6.3 6.1 5.6 6.5 6.5 6.5 6.5 6.5 6.5 6.5 6.5 6.5 6.5 6.5 6.5 6.5 6.0 6.6 6.0 6.4 6.2 6.0 6.7
Wind_Speed
27 26 25 24 20 21 21 20 21 21 22 23 21 22 20 16 18 14 10 6 5 5 5 4 4 4 4 3 2 9 9 3 4 2 5 8 9 10 13 10 11 15 14 16 16 15 15
30 30 25 21 18 19 19 20 20 20 20 21 22 17 18 22 15 13 10 5 5 7 4 5 6 3 4 4 3 11 5 2 3 2 5 5 6 8 9 12 12 12 12 12 13 14 15
31 30 27 23 21 19 18 18 19 19 18 20 19 18 14 26 17 14 10 7 6 6 5 6 7 6 3 4 4 7 3 1 3 4 5 3 6 5 5 9 8 9 13 14 16 13 18
31 31 28 26 24 23 21 19 16 18 16 17 17 19 17 13 18 14 11 10 7 6 6 6 8 5 3 2 3 2 3 4 4 3 4 3 4 8 10 8 12 13 14 14 10 17 11
33 29 28 26 24 19 23 19 16 14 15 16 19 16 20 12 16 13 11 12 7 5 6 9 5 4 4 2 3 3 3 2 2 3 2 3 3 6 5 4 5 7 10 12 16 14 11
31 29 27 25 21 19 21 18 15 13 14 17 20 16 19 22 18 17 14 11 11 14 8 4 4 2 2 4 3 2 2 2 4 5 4 4 3 3 3 2 4 6 10 13 15 9 18
33 31 26 23 20 16 15 17 14 12 13 15 22 20 14 22 16 12 11 3 4 3 2 4 7 6 4 4 1 3 2 3 5 4 6 2 4 6 8 12 14 12 14 16 15 16 16
31 33 29 21 21 17 18 15 12 10 11 15 20 23 23 20 17 11 4 3 2 3 6 6 3 3 1 2 2 4 0 2 5 6 2 4 7 12 10 8 11 12 13 16 16 15 17
36 27 27 24 17 13 12 12 8 7 8 15 15 14 18 18 16 8 5 2 4 7 4 2 1 1 3 3 2 4 1 3 8 9 8 8 9 11 15 12 11 13 13 15 16 19 21
42 39 24 13 14 9 8 7 3 5 9 13 13 16 18 17 7 5 2 4 6 4 4 3 3 2 1 2 1 3 2 3 2 5 5 6 9 11 9 11 11 14 11 19 19 12 10
45 44 39 12 10 5 4 6 1 7 10 9 10 13 14 1 2 2 4 3 2 1 2 1 3 2 1 2 1 2 1 4 7 9 4 6 6 6 9 10 12 16 12 14 11 10 11
47 44 35 10 17 9 2 2 4 7 10 9 23 12 6 2 2 3 3 1 1 2 5 1 1 1 3 2 1 6 3 7 10 8 10 13 13 9 4 11 11 14 12 15 14 8 7
47 46 33 17 22 10 6 8 7 7 9 21 19 10 3 4 3 1 1 2 1 5 2 2 1 1 4 2 2 6 4 2 4 6 5 9 5 4 3 8 7 9 6 4 2 3 7
50 50 36 27 17 10 10 12 9 5 3 20 13 8 8 6 4 2 2 2 6 8 4 3 2 4 2 7 3 6 7 4 6 3 5 7 6 2 4 5 4 3 3 3 5 4 6
44 45 34 30 18 13 11 11 11 17 26 18 10 3 3 4 8 3 4 3 4 2 5 4 3 2 2 3 4 3 4 4 3 6 4 5 5 0 7 6 3 0 5 1 5 10 4
37 38 32 20 19 14 12 10 14 18 15 7 2 2 2 8 9 3 2 6 4 4 6 4 2 1 1 1 4 3 4 4 5 6 5 1 6 5 10 4 7 7 6 2 4 4 3
34 29 34 22 16 15 13 7 11 14 10 13 3 2 3 11 5 3 3 5 8 5 2 2 2 0 2 2 2 3 2 1 3 5 3 3 2 7 6 4 7 4 5 4 3 4 3
33 28 27 31 19 18 14 18 17 12 22 6 2 1 3 6 1 2 3 3 1 4 1 2 2 2 3 4 1 2 2 4 4 6 6 5 3 5 4 6 4 2 6 6 3 7 4
27 27 18 17 23 24 26 14 9 15 17 3 2 2 3 3 1 3 5 7 5 3 5 2 3 2 3 3 1 1 5 3 2 4 5 5 4 5 4 2 2 6 12 15 2 2 16
23 23 21 11 11 15 18 16 17 19 15 0 1 4 2 2 3 1 7 5 5 3 3 2 2 4 3 0 3 2 2 2 1 4 6 3 4 5 3 4 4 9 16 17 13 4 6
20 21 22 10 6 6 10 16 19 22 15 1 1 2 2 1 0 4 3 2 4 2 1 3 2 2 4 2 4 3 4 2 5 2 4 1 3 4 1 2 7 12 13 15 13 12 7
19 20 23 15 9 4 6 10 16 24 16 2 3 2 3 3 1 3 0 2 2 3 2 2 2 3 4 4 4 5 5 4 3 4 1 1 3 2 3 3 2 10 13 11 11 11 7
17 19 23 13 4 3 6 9 12 19 15 3 2 2 2 1 2 3 2 4 3 1 1 2 6 4 3 3 6 6 5 3 3 1 3 1 3 4 3 5 3 3 7 7 4 11 6
14 16 19 20 4 4 6 7 10 12 9 2 1 2 3 1 3 2 1 1 2 2 3 2 5 5 3 5 7 7 8 7 6 4 5 3 4 2 4 6 2 2 6 1 6 9 10
12 12 13 15 12 7 5 5 9 11 6 3 1 1 2 3 2 3 3 2 4 2 0 1 3 3 5 4 3 4 3 4 7 6 4 2 3 2 1 2 3 3 3 1 3 4 9
8 9 10 12 14 9 6 3 6 8 13 4 1 1 1 2 3 8 2 2 3 4 2 3 2 1 3 2 2 3 2 3 2 2 6 5 6 2 1 1 1 3 4 1 4 1 5
7 8 9 10 12 13 10 7 6 6 10 6 2 6 1 1 2 4 1 2 4 4 1 2 3 3 1 2 2 2 2 1 2 3 1 2 2 2 2 1 2 5 4 1 1 0 4
8 6 7 8 10 13 13 13 8 6 8 5 1 9 4 1 2 2 0 0 3 3 2 2 2 1 3 2 2 2 1 0 2 3 2 2 0 2 1 1 3 5 3 2 4 4 4
10 7 7 6 7 9 12 14 10 6 4 5 2 1 7 2 2 1 1 1 3 2 3 2 2 2 1 2 2 2 3 2 2 3 1 2 4 2 3 3 4 3 5 4 5 6 2
Wind_Direction
331 330 326 323 318 315 322 326 326 328 333 324 326 320 320 295 185 172 179 174 205 156 162 175 186 190 222 187 67 130 116 132 197 226 248 249 240 261 253 262 247 252 256 263 266 272 281
336 332 332 333 330 320 320 317 326 324 329 330 329 325 315 330 175 159 165 161 176 139 166 190 201 190 258 157 77 127 143 180 298 290 262 259 266 277 293 285 289 291 289 295 300 296 287
336 335 336 336 333 328 324 316 320 322 330 333 334 334 337 332 169 157 149 153 141 132 169 174 174 206 230 79 92 125 127 241 23 295 286 259 325 278 272 273 279 292 287 280 270 260 256
338 335 337 336 335 332 325 319 320 322 326 331 343 335 339 330 150 142 142 135 123 137 171 179 187 208 76 44 14 157 187 220 183 254 276 15 300 274 272 287 290 288 269 267 257 256 254
338 336 336 337 339 330 330 320 324 326 327 335 338 329 335 166 128 120 131 118 130 158 188 157 183 249 103 175 175 120 9 316 110 155 243 250 265 258 282 266 289 251 263 268 277 277 228
338 336 335 341 346 336 332 335 332 338 336 337 335 321 324 135 131 131 129 123 130 125 146 163 92 201 185 104 100 108 97 305 269 196 222 248 236 232 248 228 246 291 296 294 295 308 307
342 338 337 342 334 315 335 333 336 350 348 346 341 325 132 113 113 118 115 121 152 150 191 34 98 81 112 91 140 199 126 222 236 243 234 206 239 245 250 231 242 262 269 275 274 283 277
345 336 332 339 340 0 341 337 352 355 357 10 26 98 111 123 128 132 94 253 64 41 119 41 55 54 319 346 178 149 280 250 223 238 210 237 250 258 277 310 301 284 274 274 279 277 281
335 326 326 325 328 358 333 346 357 7 15 24 28 116 116 120 129 139 217 50 17 350 94 82 306 354 70 268 43 104 249 276 276 273 259 229 257 305 302 288 278 277 274 279 275 287 279
333 326 301 290 316 341 332 322 329 12 28 27 72 128 127 136 161 176 196 76 23 8 106 135 165 70 209 339 72 32 23 297 283 300 332 283 276 256 267 270 271 270 262 271 275 290 279
335 334 330 231 231 262 329 293 333 36 30 17 105 134 135 163 54 101 42 95 6 255 111 313 77 59 334 302 43 122 12 280 268 261 205 268 307 287 289 285 293 286 288 283 274 272 300
345 353 360 66 185 195 172 246 85 44 35 357 130 130 114 56 30 45 102 111 223 228 71 1 111 69 25 20 40 322 229 201 248 276 256 257 253 274 268 301 290 294 297 285 270 267 258
4 8 16 54 159 158 137 117 91 59 63 112 111 88 28 8 38 96 85 220 226 51 198 102 85 22 134 354 323 339 323 41 46 340 13 303 271 137 359 300 261 238 277 302 289 188 244
8 14 31 86 122 102 99 88 76 68 152 132 101 69 57 50 50 5 260 255 63 87 78 74 63 42 15 8 88 346 332 18 72 46 301 349 330 132 161 222 280 278 214 266 304 298 318
18 24 54 92 75 77 92 95 79 104 116 121 106 62 49 1 349 327 291 34 43 57 106 117 86 338 35 63 31 336 348 22 329 45 360 331 288 336 301 239 182 253 219 188 274 250 266
15 34 47 67 72 74 70 81 100 116 116 43 34 102 37 324 329 307 264 83 90 102 104 128 33 53 256 89 355 17 22 54 343 27 119 313 293 280 334 292 204 226 317 255 199 289 320
7 25 37 58 80 71 73 53 143 116 52 351 317 46 348 325 310 231 67 88 103 100 41 66 80 71 36 83 17 23 332 271 320 336 320 260 206 287 323 348 307 313 288 228 256 292 326
14 15 32 45 80 85 73 100 114 74 360 325 18 51 345 317 20 301 63 39 257 89 127 102 329 354 8 120 343 119 258 208 343 314 307 159 301 281 259 132 304 301 347 342 346 357 342
11 17 16 42 56 69 69 60 21 2 340 331 33 321 249 262 36 83 126 101 58 57 53 8 44 339 358 15 317 168 204 171 291 302 2 332 263 313 3 283 319 12 1 3 339 268 24
4 6 13 358 35 55 52 53 32 9 358 231 233 342 332 290 295 26 122 113 112 32 69 12 356 268 283 302 138 291 1 116 145 283 321 258 283 62 29 303 315 7 18 7 18 2 5
3 358 357 356 324 38 36 24 13 354 352 196 304 5 5 279 331 68 23 123 121 118 51 330 209 333 355 320 316 76 350 59 152 257 321 339 309 358 120 110 57 42 22 18 16 18 32
357 357 353 347 206 307 5 26 17 355 355 122 337 345 254 358 285 154 3 141 175 127 325 105 318 348 356 49 11 334 347 27 56 303 197 248 309 268 262 237 193 54 20 15 14 2 11
356 358 360 13 142 282 341 360 23 19 6 27 332 265 259 49 256 273 77 125 167 138 146 353 330 297 23 21 337 331 306 279 247 333 308 229 307 334 285 317 322 40 23 10 4 16 349
357 0 1 6 13 341 337 344 11 42 47 12 9 285 299 96 269 336 126 93 199 100 352 74 332 326 25 291 282 244 249 243 258 218 196 288 281 241 280 305 37 171 125 305 55 27 8
346 355 359 4 349 334 336 358 359 356 9 103 338 32 15 327 313 49 291 195 72 182 209 311 66 356 319 291 300 307 216 229 199 193 246 240 278 290 138 76 171 177 149 243 331 23 15
329 344 351 352 354 327 314 329 356 11 343 318 349 229 332 330 32 331 218 245 224 217 163 146 152 305 306 318 320 294 303 352 314 243 178 239 230 222 305 158 124 125 134 296 297 180 16
312 329 340 344 344 346 328 287 304 359 356 345 344 309 148 345 39 352 31 290 332 323 43 126 168 165 16 297 283 259 320 83 274 296 52 280 292 270 354 3 108 129 129 111 293 237 47
280 299 322 336 342 342 330 325 277 314 341 356 24 326 312 199 140 192 47 64 337 298 305 105 116 237 148 259 280 272 261 353 315 230 219 262 207 211 62 250 260 148 131 238 152 103 131
266 281 292 314 332 335 337 328 263 278 322 340 298 2 321 317 349 319 329 153 168 129 308 306 336 339 342 253 338 315 274 212 282 282 53 268 197 195 182 194 125 158 113 110 143 143 147